Wind_Speed
2 3 7 9 5 2 4 2 2 3 1 3 5 13 17 14 7 8 8 6 5 6 1 6 11 14 17 16 16 14 11 7 4 1 4 4 4 3 4 5 6 6 8 7
4 7 4 4 4 3 1 1 5 4 1 1 5 19 15 7 4 4 3 4 3 3 4 5 12 15 16 18 15 13 10 7 3 0 2 2 3 2 3 4 4 7 8 6
6 2 4 5 3 4 3 4 3 4 4 1 6 9 5 3 3 3 3 1 0 5 6 5 8 15 16 16 14 12 9 6 3 1 1 1 3 1 1 4 5 6 6 7
5 2 4 3 4 5 2 3 2 0 2 3 3 4 5 5 8 5 5 5 4 4 4 4 7 13 15 15 13 11 10 6 3 2 1 4 2 1 1 4 4 7 6 6
5 4 4 3 3 6 4 2 3 2 3 2 1 3 8 4 6 4 7 7 5 5 6 7 8 15 14 14 13 12 10 7 4 3 3 3 2 1 2 4 6 7 6 6
0 1 1 2 2 2 6 4 6 4 2 2 2 4 8 4 4 1 1 6 5 6 6 6 11 13 14 13 13 13 10 8 5 3 4 2 2 1 1 3 6 7 7 6
0 2 0 2 5 4 3 5 3 4 3 5 3 2 11 5 5 3 2 6 6 6 7 7 8 12 16 17 16 14 11 9 6 5 4 3 3 2 2 2 5 7 8 7
6 4 6 2 2 4 5 4 5 6 3 3 2 6 6 5 2 6 3 2 6 7 6 8 8 14 18 18 17 14 12 10 7 6 5 4 3 2 3 2 2 5 7 7
5 2 2 3 2 2 4 3 2 6 1 3 3 7 10 2 5 7 4 1 6 7 7 7 8 15 19 19 18 16 13 10 8 8 7 5 4 3 3 3 3 4 6 5
5 3 2 1 2 2 3 2 3 2 1 3 4 5 6 7 8 9 5 4 5 5 6 6 7 15 19 19 17 15 12 11 9 9 8 6 6 4 3 3 4 5 6 5
4 3 3 0 5 7 3 2 2 2 3 4 1 5 6 3 4 6 7 7 5 5 6 6 7 15 18 17 16 16 14 13 11 10 8 7 7 4 4 3 4 5 6 7
5 4 3 5 1 1 1 2 5 3 5 0 2 5 4 4 4 6 7 7 6 3 6 7 9 15 18 19 18 18 16 14 12 10 9 8 7 5 4 2 3 6 7 7
6 1 3 6 3 2 4 4 3 3 2 6 5 5 4 1 5 6 7 7 7 6 4 4 5 9 15 19 20 20 18 15 13 11 10 9 7 5 3 3 3 4 4 5
5 3 5 6 4 4 3 3 4 3 3 4 6 5 12 4 6 9 8 6 5 5 5 6 6 7 17 20 21 20 19 17 15 12 11 10 8 5 3 4 2 2 2 3
4 4 2 1 2 2 3 5 7 7 6 5 2 6 7 8 7 10 7 7 9 7 6 7 7 7 15 19 22 20 19 19 16 14 12 11 8 5 4 3 2 4 4 6
3 2 2 3 2 1 4 8 8 7 2 7 6 18 8 13 9 12 9 8 10 9 7 6 7 6 15 23 26 25 23 22 19 16 14 12 10 7 5 5 6 7 7 9
3 5 3 3 2 1 7 8 13 5 3 6 6 10 6 7 5 3 7 8 9 9 9 8 8 11 21 27 30 31 29 24 21 18 16 15 12 8 7 8 8 10 9 8
4 3 2 3 1 1 4 2 5 7 6 8 9 12 11 8 4 5 5 5 8 8 7 8 6 12 22 27 30 29 28 27 25 22 19 17 14 11 11 11 12 11 9 9
3 3 2 4 3 5 4 2 6 6 2 2 5 6 6 4 1 2 2 3 6 8 10 9 17 13 15 24 28 30 29 29 26 25 24 22 17 14 14 16 14 11 11 10
6 1 3 2 5 6 6 0 1 2 1 1 1 4 5 6 4 3 8 8 8 9 13 15 17 7 7 16 27 31 29 31 30 29 27 25 19 17 18 18 17 15 12 13
7 3 11 4 3 5 7 4 1 4 4 2 2 4 6 4 1 4 8 7 7 8 15 18 13 8 5 10 22 24 26 29 34 29 27 25 20 19 20 20 18 17 17 15
9 7 5 5 4 8 5 4 6 3 1 4 5 4 4 5 6 5 7 8 9 9 16 16 14 10 5 8 21 20 23 28 29 29 28 25 21 20 21 20 19 20 23 23
4 6 5 7 6 3 1 5 3 3 4 3 5 3 2 3 5 6 6 8 8 13 17 15 11 8 3 5 16 19 20 24 27 30 30 26 22 22 23 25 26 27 27 26
3 3 3 4 5 4 5 3 3 4 6 5 4 2 2 4 6 6 7 7 8 14 15 16 11 6 8 6 13 17 19 23 28 31 32 27 25 24 24 25 28 30 30 28
4 7 6 3 4 3 3 3 5 4 6 4 3 1 3 4 6 4 6 7 8 13 19 14 13 12 9 9 11 14 17 23 28 28 31 30 27 27 27 26 29 30 30 32
3 6 4 4 6 3 2 7 5 6 5 3 4 7 5 2 5 4 7 11 11 15 20 21 15 13 13 10 12 12 17 24 28 25 27 28 28 27 28 27 22 19 23 25
Wind_Direction
35 122 212 200 195 93 117 164 249 264 301 295 243 281 287 289 247 272 279 291 282 246 100 141 154 154 152 152 159 163 162 162 179 278 334 343 9 23 43 21 353 344 336 325
53 235 192 135 171 203 104 317 274 269 225 213 336 292 278 292 245 207 259 302 286 137 127 119 142 149 153 153 159 159 159 162 162 3 9 -0 359 35 31 5 5 341 350 322
171 166 91 141 147 150 204 202 217 237 323 182 321 291 324 275 276 234 225 221 150 180 167 146 145 151 148 158 165 159 158 159 139 97 66 36 32 61 14 353 14 6 356 323
241 296 143 157 195 147 254 212 177 160 51 253 1 283 290 304 297 252 234 220 214 162 145 147 159 153 159 165 167 164 162 156 151 126 115 76 83 122 2 355 6 339 338 332
233 168 162 157 220 173 221 76 106 70 105 4 320 108 272 337 298 260 222 218 209 170 170 172 175 166 169 173 171 169 164 157 155 141 104 107 123 127 334 344 345 335 336 334
218 297 140 138 77 45 149 76 48 50 67 40 312 141 283 238 230 227 131 208 193 156 168 164 174 167 171 174 175 176 168 159 159 168 117 155 133 142 299 324 338 336 329 350
295 209 64 131 87 30 78 74 338 354 5 217 343 88 246 282 262 249 119 203 192 163 166 162 172 176 178 180 180 180 173 161 170 181 152 180 156 188 245 313 341 334 331 355
160 278 174 153 138 181 177 164 162 211 209 253 28 225 249 213 315 255 280 95 164 175 184 181 191 184 188 186 183 185 179 167 180 194 181 195 184 188 264 283 307 323 319 329
140 258 317 42 82 86 195 197 148 103 38 52 231 283 297 257 298 279 300 159 208 191 200 193 193 192 194 193 189 188 182 171 188 206 200 207 200 205 244 293 320 309 291 313
202 89 340 356 147 66 163 147 91 353 187 253 298 287 238 346 338 347 312 298 268 184 196 192 195 191 196 196 192 188 187 176 190 208 214 214 211 219 243 277 297 300 309 303
138 114 299 104 213 171 136 195 51 156 145 174 182 260 209 313 349 358 354 320 291 213 204 203 203 199 193 192 193 191 187 179 188 206 221 209 219 224 248 271 301 311 305 291
188 122 147 208 314 341 351 224 164 158 238 111 145 277 186 211 102 63 21 358 338 272 205 199 200 191 190 193 193 194 189 187 188 200 216 213 223 228 254 287 284 288 271 266
186 212 67 354 4 9 218 202 184 103 89 197 154 250 234 184 49 8 39 14 352 339 265 195 180 197 202 201 196 195 190 189 189 197 202 213 213 221 242 275 277 276 268 255
98 103 155 184 170 130 176 195 201 154 133 184 223 272 304 293 1 342 343 318 305 299 258 207 209 206 204 209 204 199 192 187 190 193 195 213 200 212 237 270 260 241 187 198
132 171 136 279 73 137 180 172 185 188 206 209 231 223 247 285 310 295 305 324 314 307 272 241 214 208 205 203 206 203 199 188 190 190 193 209 192 207 247 249 171 149 171 169
26 155 117 342 1 153 238 224 207 218 217 258 276 273 253 255 262 281 319 308 306 311 299 268 224 209 209 200 204 199 201 192 190 192 192 197 192 202 215 173 149 137 146 146
110 140 101 258 318 1 302 219 205 174 180 175 206 254 265 259 265 295 301 300 298 296 290 288 235 211 211 210 203 200 196 192 188 194 188 191 197 191 184 167 146 141 146 144
148 145 101 186 29 257 243 187 162 185 220 227 272 278 277 270 222 234 286 309 315 310 306 305 272 237 229 217 209 203 196 192 188 190 188 189 198 190 178 170 159 153 150 147
167 126 137 164 202 310 306 210 154 173 144 231 217 288 300 284 182 184 129 307 287 310 315 305 321 293 246 214 203 196 191 193 192 191 187 189 195 188 180 175 170 164 169 162
159 268 130 116 158 202 238 297 208 236 179 39 214 57 14 9 64 298 333 330 342 342 340 339 337 326 247 212 199 187 184 188 197 195 189 186 192 190 184 180 182 179 177 163
184 182 217 190 209 274 253 250 336 88 192 116 54 17 15 56 178 283 312 337 338 347 352 355 349 335 286 216 196 186 185 193 197 194 188 187 188 190 186 180 179 176 167 155
174 170 194 193 206 245 221 140 174 189 79 84 48 27 28 356 336 331 336 346 344 344 354 2 352 348 331 217 196 192 199 200 197 188 187 188 185 185 186 183 172 166 160 151
206 181 180 179 205 215 89 142 155 149 121 104 102 43 28 19 350 331 329 342 335 338 340 347 354 336 323 225 213 199 208 202 193 186 188 190 184 183 184 179 170 163 162 156
249 173 168 92 229 195 156 108 111 131 140 131 129 113 65 26 349 340 337 339 340 338 339 334 332 331 292 209 210 224 215 201 193 186 187 192 184 182 185 183 177 171 170 165
191 136 164 268 277 139 239 203 156 132 115 121 139 110 40 1 351 330 331 329 316 323 329 328 322 311 298 248 192 212 218 199 192 188 186 191 192 186 183 186 184 183 180 179
192 172 168 209 209 184 156 174 154 169 193 153 49 352 335 208 294 285 301 305 306 325 328 323 321 305 296 258 221 184 213 201 190 180 186 187 185 185 182 178 174 189 187 188
Height
791 797 799 796 795 790 792 792 791 790 787 788 788 777 760 748 755 756 753 750 752 754 756 757 760 763 767 771 773 776 779 783 784 785 786 788 789 788 787 787 786 785 784 783
799 798 788 789 794 793 794 795 796 790 788 789 788 768 753 753 749 747 745 745 748 755 758 760 762 764 767 771 774 776 779 781 783 784 786 787 788 787 787 786 786 785 784 782
796 783 787 788 794 796 797 797 793 789 789 791 794 769 748 746 747 743 744 745 748 753 758 763 765 765 769 773 776 777 780 782 783 784 785 785 787 788 787 787 786 785 784 783
793 788 785 788 790 792 790 792 789 789 792 795 793 789 758 750 749 743 743 745 747 752 759 763 766 767 769 771 775 776 778 781 783 785 783 785 786 787 787 787 787 785 784 783
788 788 786 785 786 788 789 791 792 794 798 798 793 798 756 754 740 733 739 745 747 752 758 763 765 765 768 770 773 776 777 780 783 784 783 784 785 787 787 788 786 785 784 783
788 791 786 785 796 792 798 796 806 814 811 831 794 796 764 748 736 730 735 742 746 752 757 762 765 766 767 770 773 775 776 779 782 783 783 783 784 785 786 786 786 786 784 783
790 788 791 789 792 794 794 801 840 830 848 811 808 801 759 739 737 732 730 740 746 752 756 761 763 766 766 767 772 774 775 778 781 781 781 783 784 785 785 786 787 786 784 783
785 794 792 792 788 787 797 795 819 813 816 803 804 791 749 738 736 739 738 737 745 751 755 758 760 763 765 766 769 774 774 776 779 781 779 782 783 785 786 785 785 785 784 783
797 789 798 796 794 794 797 805 797 836 878 825 787 771 740 736 740 742 738 739 744 751 755 757 759 760 763 766 767 770 772 774 777 779 779 781 782 784 784 785 786 784 781 782
779 794 804 798 796 798 793 797 798 823 805 810 800 783 756 743 744 744 740 740 744 749 753 756 757 757 760 764 766 768 771 772 775 777 778 780 781 782 783 784 784 783 783 782
783 778 807 801 797 791 797 800 798 795 805 808 815 771 754 744 747 747 747 745 744 746 750 754 756 756 757 760 764 767 769 770 772 775 777 780 779 782 782 783 783 782 781 780
769 784 815 799 799 798 794 782 782 784 802 830 817 776 745 744 744 746 744 747 747 746 747 749 754 753 755 757 760 763 767 769 769 772 775 779 779 780 782 782 781 781 779 779
768 790 821 805 801 799 794 790 784 792 793 816 801 777 746 745 747 748 747 750 751 749 748 748 752 754 755 757 757 760 763 766 768 770 772 776 778 779 780 780 780 779 779 778
762 792 786 777 767 788 801 794 788 788 816 793 781 776 743 742 751 747 746 743 744 745 746 746 749 748 749 754 756 758 760 762 765 768 770 773 776 777 778 778 778 777 778 778
762 781 801 801 779 774 772 792 795 799 780 779 773 784 755 751 751 746 745 742 744 744 747 745 743 745 746 749 754 756 759 760 762 764 768 771 773 775 776 776 776 777 777 778
768 791 796 789 795 791 788 780 785 787 793 787 787 766 750 746 748 745 742 744 740 738 739 740 739 741 742 741 747 750 754 758 760 762 765 769 772 773 774 774 775 776 778 779
768 784 795 803 811 798 783 775 769 775 775 771 780 746 745 744 746 745 740 738 739 736 732 730 731 731 733 735 737 743 746 753 757 760 762 767 770 772 773 774 775 776 777 779
775 773 776 797 793 789 755 754 755 763 762 763 759 751 747 745 743 744 740 739 736 734 728 726 724 724 723 726 732 739 743 747 752 756 759 763 768 770 772 774 775 777 778 779
769 774 785 783 803 774 746 748 757 749 748 747 753 749 745 741 741 739 742 741 739 735 729 724 721 719 719 721 727 735 740 744 749 752 754 759 764 768 770 773 775 777 779 780
769 771 782 808 803 797 759 743 744 747 759 746 745 743 741 742 747 746 743 738 735 731 727 723 720 718 718 721 724 730 734 738 743 747 752 755 761 765 768 771 774 776 779 780
765 769 766 794 789 778 754 749 748 765 755 744 745 745 746 748 749 746 743 738 735 732 728 725 723 720 718 721 724 728 730 732 735 744 751 754 758 763 766 769 773 775 777 780
758 764 766 770 765 762 740 745 750 748 744 745 749 752 752 752 751 748 744 741 736 732 728 726 724 721 720 721 722 726 728 731 736 741 749 753 756 760 764 767 771 774 777 779
758 754 766 759 752 740 742 743 742 746 748 751 753 753 753 752 751 749 746 742 739 735 731 728 725 723 720 722 725 725 730 732 737 740 746 752 755 759 763 765 769 772 776 780
751 748 757 754 741 741 742 742 742 744 748 751 752 753 752 752 749 747 744 742 740 735 731 728 727 724 724 720 723 727 729 732 736 739 743 750 753 757 761 765 768 770 774 777
747 746 758 757 742 743 744 743 743 746 747 751 751 750 749 749 748 746 745 742 739 735 731 729 727 726 724 724 719 723 728 730 735 739 742 747 752 755 759 764 766 769 772 774
747 746 745 745 734 734 736 743 742 746 748 748 748 747 747 747 748 746 743 739 735 732 729 726 724 724 723 723 721 715 725 728 732 736 741 745 749 754 757 760 765 770 772 775